Location: Tierra del Sol
(32.6128°N, 116.3319°W)
Time: 20:35:21
(UTC-07:00)

OTV 5 (USA 277) - Pass Details

Date: 16 October 2017
Orbit: 404 x 417 km, 43.0° (Epoch: 07 September)

Event Time Altitude Azimuth Distance (km) Brightness Sun altitude
Rises 19:35:45 0° 305° (NW) 2,354 ? -18.6°
Reaches altitude 10° 19:38:34 10° 330° (NNW) 1,490 ? -19.2°
Enters shadow 19:40:31 15° 5° (N) 1,233 ? -19.6°
